TimeCST,TemperatureF,Dew PointF,Humidity,Sea Level PressureIn,VisibilityMPH,Wind Direction,Wind SpeedMPH,Gust SpeedMPH,PrecipitationIn,Events,Conditions,WindDirDegrees,DateUTC
12:54 AM,26.1,19.0,75,29.78,10.0,SE,9.2,-,N/A,,Clear,140,2014-02-18 06:54:00
1:54 AM,32.0,19.9,61,29.74,10.0,SSE,12.7,-,N/A,,Clear,160,2014-02-18 07:54:00
2:54 AM,32.0,21.0,64,29.70,10.0,SSE,11.5,-,N/A,,Clear,160,2014-02-18 08:54:00
3:54 AM,34.0,21.9,61,29.66,10.0,SSE,10.4,-,N/A,,Clear,160,2014-02-18 09:54:00
4:54 AM,36.0,23.0,59,29.64,10.0,South,12.7,-,N/A,,Clear,180,2014-02-18 10:54:00
5:54 AM,39.0,23.0,53,29.64,10.0,South,13.8,-,N/A,,Clear,190,2014-02-18 11:54:00
6:54 AM,41.0,23.0,49,29.64,10.0,SW,10.4,-,N/A,,Clear,220,2014-02-18 12:54:00
7:54 AM,36.0,23.0,59,29.64,10.0,South,8.1,-,N/A,,Clear,170,2014-02-18 13:54:00
8:54 AM,42.1,23.0,47,29.64,10.0,WSW,16.1,-,N/A,,Clear,240,2014-02-18 14:54:00
9:54 AM,48.9,24.1,38,29.62,10.0,WSW,12.7,-,N/A,,Clear,250,2014-02-18 15:54:00
10:54 AM,54.0,24.1,31,29.64,10.0,WSW,12.7,-,N/A,,Clear,250,2014-02-18 16:54:00
11:54 AM,59.0,24.1,26,29.64,10.0,West,15.0,-,N/A,,Clear,260,2014-02-18 17:54:00
12:54 PM,62.1,24.1,23,29.61,10.0,West,9.2,-,N/A,,Clear,270,2014-02-18 18:54:00
1:54 PM,64.9,23.0,20,29.61,10.0,West,9.2,-,N/A,,Clear,270,2014-02-18 19:54:00
2:54 PM,66.0,23.0,20,29.62,10.0,NW,20.7,25.3,N/A,,Clear,310,2014-02-18 20:54:00
3:54 PM,62.1,26.1,25,29.69,10.0,NW,28.8,42.6,N/A,,Clear,310,2014-02-18 21:54:00
4:54 PM,57.0,28.0,33,29.75,10.0,NNW,29.9,41.4,N/A,,Clear,340,2014-02-18 22:54:00
5:54 PM,53.1,28.9,40,29.81,10.0,NW,18.4,-,N/A,,Partly Cloudy,320,2014-02-18 23:54:00
6:54 PM,45.0,27.0,49,29.85,10.0,NW,10.4,-,N/A,,Clear,310,2014-02-19 00:54:00
7:54 PM,44.1,25.0,47,29.88,10.0,WNW,11.5,-,N/A,,Clear,300,2014-02-19 01:54:00
8:54 PM,43.0,25.0,49,29.89,10.0,WNW,13.8,-,N/A,,Clear,290,2014-02-19 02:54:00
9:54 PM,39.9,26.1,58,29.93,10.0,WNW,10.4,-,N/A,,Clear,300,2014-02-19 03:54:00
10:54 PM,37.9,27.0,65,29.94,10.0,North,8.1,-,N/A,,Clear,360,2014-02-19 04:54:00
11:54 PM,35.1,26.1,70,29.94,10.0,West,8.1,-,N/A,,Clear,270,2014-02-19 05:54:00